Wind_Speed
21 21 21 24 21 19 18 20 20 20 21 21 21 20 20 20 19 20 23 24 24 23 23 23 22 20 19 8 16 12 10 12 9 9 9 10 10 12 18 14 7 11 14 12 12 8 11
19 20 23 22 23 24 20 20 19 20 21 21 21 21 20 20 19 19 20 21 22 23 23 22 21 20 14 14 7 12 13 12 9 11 9 12 12 13 13 18 12 9 11 15 10 12 9
20 19 20 18 18 22 25 26 21 20 21 21 21 21 21 20 19 19 19 19 20 20 20 21 19 19 17 29 10 6 8 11 10 12 12 10 11 11 15 15 18 14 15 15 16 10 1
21 21 21 21 20 19 19 21 25 24 19 20 21 20 22 22 20 19 18 18 18 18 19 17 17 16 14 10 11 16 15 14 14 14 14 8 8 12 16 18 21 15 18 16 10 15 9
23 23 23 23 23 22 19 18 20 19 25 19 20 21 20 23 22 20 18 17 15 17 16 15 14 8 14 12 20 18 18 18 15 14 14 11 8 13 16 15 13 16 15 15 7 2 8
26 26 25 25 25 23 23 22 19 18 20 23 20 20 21 22 22 19 19 17 14 21 14 6 8 10 15 12 11 15 20 19 17 15 14 14 11 11 13 12 13 7 12 11 7 6 10
27 27 27 26 26 25 26 26 24 22 19 19 25 23 20 19 21 18 17 14 9 5 8 11 4 13 22 7 5 12 20 20 15 20 16 19 11 15 18 18 19 15 9 21 7 6 11
30 30 30 29 29 29 27 25 24 25 24 19 19 22 20 18 17 19 13 6 7 8 13 23 28 32 31 21 10 15 22 22 21 19 19 15 18 18 18 19 17 14 13 18 5 11 5
32 33 32 33 32 31 30 28 26 24 25 24 18 17 18 17 17 20 14 15 11 13 10 27 30 33 35 27 30 19 27 30 19 20 19 19 17 19 17 18 11 14 16 16 13 6 9
34 35 34 33 32 30 29 29 29 26 24 21 21 15 18 14 15 6 12 11 11 10 7 14 20 21 31 29 27 33 28 30 19 22 21 19 22 17 10 13 14 15 14 13 10 13 9
37 36 35 32 31 31 29 29 27 28 26 23 19 19 16 16 7 4 3 6 3 3 7 8 8 11 10 35 8 28 30 32 24 22 13 19 21 17 13 15 16 13 1 10 13 13 14
40 38 37 35 34 33 32 29 27 26 28 25 22 19 14 20 19 15 6 5 8 5 12 7 10 9 12 21 35 13 36 31 33 23 21 21 22 16 15 15 16 9 10 14 11 11 11
41 39 39 37 35 34 34 32 29 26 24 26 24 20 22 15 16 9 13 12 6 13 7 13 9 10 13 14 21 23 22 25 22 20 21 20 23 20 16 17 17 9 11 8 9 9 9
43 42 40 38 36 35 33 32 31 28 25 23 24 23 24 19 19 8 11 5 16 17 29 5 8 16 15 15 17 22 22 22 24 24 15 17 15 21 14 17 13 12 15 8 4 3 9
43 42 40 40 39 36 35 33 31 29 26 24 23 26 25 21 26 18 7 14 18 24 21 29 15 10 14 14 15 17 22 21 23 25 20 16 23 18 20 15 18 14 15 15 7 3 5
43 42 40 40 40 39 36 35 32 30 27 24 25 27 30 23 25 21 7 12 28 23 30 23 26 19 14 16 15 15 21 17 22 23 23 18 11 18 18 19 19 16 12 11 7 5 6
43 43 43 42 42 41 40 39 35 32 29 26 27 13 18 27 24 19 12 18 29 43 33 29 27 24 24 18 18 18 17 21 23 23 24 19 12 12 16 16 16 10 12 8 13 11 6
45 45 43 42 42 43 42 40 39 36 33 33 28 7 20 36 17 12 18 35 28 27 42 29 26 27 23 21 19 13 20 18 25 23 27 22 9 13 17 12 15 18 16 17 10 9 5
47 46 46 43 42 41 42 42 43 40 41 42 18 13 22 46 13 16 20 35 37 25 28 32 27 27 20 19 17 19 17 20 20 14 23 19 16 8 17 18 17 15 19 14 15 11 12
44 43 42 43 43 44 41 40 44 46 48 49 17 7 14 37 36 26 25 35 30 38 29 35 28 23 20 18 17 12 16 10 14 15 13 11 13 18 14 13 10 16 18 17 13 8 4
43 42 38 39 39 43 41 43 46 52 52 55 22 9 20 14 23 29 26 16 32 26 36 35 28 30 25 21 17 17 15 22 8 11 4 5 16 20 20 19 19 18 19 19 20 22 15
35 35 37 37 38 37 37 41 49 50 54 59 15 10 30 15 33 26 25 30 31 23 25 31 29 29 23 23 15 7 20 16 12 12 13 5 11 14 21 21 20 23 19 22 19 20 20
39 40 40 41 41 41 40 42 43 45 68 34 32 38 26 23 22 19 26 33 35 24 25 33 32 26 27 22 25 12 5 8 9 18 14 12 8 14 16 17 14 21 19 17 17 19 13
40 41 42 43 43 44 44 45 45 47 54 37 38 38 11 10 17 23 31 35 32 27 24 25 37 27 31 13 16 7 4 12 11 21 10 2 13 10 7 1 21 11 14 16 16 15 16
40 40 40 41 44 46 48 48 51 51 51 58 23 39 22 4 17 23 31 26 32 31 24 25 33 44 34 15 10 5 3 2 8 21 8 8 6 3 4 14 17 17 17 12 13 17 20
34 37 39 42 46 49 49 51 52 54 54 51 44 44 34 12 13 36 16 28 16 18 18 25 38 27 28 12 5 9 5 9 8 5 10 10 9 4 3 11 16 6 12 18 15 16 14
31 35 36 39 46 53 52 51 51 53 53 54 38 53 35 16 25 18 12 19 32 23 14 17 27 18 18 9 10 10 10 13 8 12 6 6 3 10 8 7 5 7 13 22 19 8 9
24 24 26 28 30 44 49 48 50 50 53 54 47 51 41 10 16 20 17 28 25 26 13 15 14 15 9 7 8 9 6 8 13 12 10 7 6 5 5 4 11 8 9 15 8 29 13
17 17 19 26 33 39 41 45 46 51 50 54 34 51 38 15 5 12 19 23 23 23 22 23 23 11 11 8 3 7 4 5 8 9 11 7 9 5 6 3 19 31 20 22 16 15 15
Wind_Direction
287 286 284 270 271 276 288 286 283 282 282 281 284 287 288 290 293 295 291 287 289 293 293 299 305 314 321 278 265 274 270 265 253 228 224 225 231 240 262 287 279 245 265 303 293 310 285
298 293 286 280 276 268 271 277 284 283 280 282 278 281 285 287 291 295 300 298 294 293 291 294 301 308 315 268 264 282 271 249 230 212 221 226 240 280 308 290 287 298 291 284 269 265 280
294 294 294 296 288 276 271 268 273 281 284 284 283 281 277 281 286 291 297 303 302 296 295 293 296 305 285 251 241 247 241 235 213 213 220 233 256 284 273 296 258 267 280 272 279 253 106
285 289 289 290 291 288 279 278 271 266 278 283 285 284 283 275 278 283 291 300 305 303 297 295 294 299 260 236 256 246 228 225 221 219 227 259 260 268 278 286 294 264 260 265 205 262 101
285 283 280 280 283 285 285 282 278 280 261 273 280 283 284 282 277 279 285 294 303 301 295 292 297 269 267 270 240 228 212 214 216 219 219 232 254 259 268 252 266 253 257 238 251 67 165
283 281 278 278 277 276 280 282 281 282 277 260 274 283 286 287 286 277 282 291 303 297 295 297 250 264 251 246 255 220 207 211 211 206 215 228 240 243 241 251 252 269 268 314 265 288 255
281 280 278 279 280 277 276 272 277 282 279 277 261 267 280 285 293 280 279 303 281 267 210 228 270 238 299 259 240 216 200 204 217 207 214 217 229 236 240 240 252 281 279 257 138 213 222
283 282 281 281 279 277 277 276 276 269 274 278 283 254 270 275 291 286 277 259 303 317 294 266 266 261 261 266 272 223 197 197 211 216 209 229 225 240 249 264 265 277 275 279 224 192 224
284 282 280 279 277 273 271 271 270 271 270 270 277 271 260 268 282 293 278 243 271 311 275 284 258 251 242 233 241 245 201 203 208 224 218 223 236 234 219 251 258 258 259 268 342 235 247
286 284 282 278 273 272 270 268 265 261 265 268 260 274 257 262 289 292 258 286 282 277 276 267 259 237 229 222 233 229 215 209 226 221 230 235 237 261 246 248 246 242 248 287 221 275 269
287 283 280 277 272 269 269 265 264 259 258 261 262 253 261 237 270 230 257 137 209 254 282 259 226 167 208 204 172 212 219 203 220 222 218 236 243 239 232 239 230 242 54 295 290 264 279
282 278 276 276 274 272 271 268 263 257 252 250 252 249 250 236 237 209 281 160 151 233 241 242 149 186 215 208 220 238 206 215 222 234 230 240 246 236 228 238 242 232 180 233 258 261 265
280 276 273 269 268 268 266 267 263 258 252 246 244 242 236 229 232 256 254 181 204 226 194 235 199 191 215 208 216 232 207 207 208 220 230 228 243 228 216 227 224 218 251 243 238 239 243
277 273 271 268 266 263 261 258 259 256 247 239 235 235 231 230 212 189 237 201 224 231 232 128 275 201 212 218 208 221 224 209 205 224 219 225 224 235 220 240 216 212 231 233 179 311 303
274 271 268 266 263 261 259 254 252 248 241 233 230 229 227 229 206 213 218 213 224 229 210 241 259 232 226 224 233 213 229 206 211 216 219 226 234 218 218 212 245 216 219 242 96 248 266
273 270 268 264 260 256 255 251 247 242 235 222 220 225 223 212 205 207 210 241 242 231 255 250 236 257 255 221 219 213 222 217 215 215 230 238 236 253 201 202 217 243 235 243 195 202 222
271 268 266 263 258 253 250 247 242 234 227 211 212 221 213 196 199 206 219 223 236 239 244 251 264 272 244 255 209 217 221 230 210 217 219 233 240 239 239 197 210 215 238 222 258 238 246
272 269 264 261 256 252 247 242 239 227 218 204 199 214 168 184 191 198 216 218 239 235 234 249 255 270 267 265 269 239 250 230 216 213 216 219 219 250 230 210 214 246 222 225 245 221 256
272 267 262 258 253 248 243 240 232 223 211 200 197 184 187 183 198 212 227 237 236 231 233 237 235 247 272 269 276 270 245 271 247 218 219 195 224 217 251 223 212 226 245 230 237 239 226
270 264 261 255 254 246 238 233 230 225 213 200 183 166 175 198 209 206 214 231 235 232 240 241 245 243 252 260 259 281 298 241 270 197 261 207 204 219 236 231 215 233 232 209 250 249 256
270 265 256 250 249 247 243 239 235 223 214 199 190 199 184 189 209 215 212 230 228 232 219 236 247 250 231 248 248 262 288 296 336 304 225 191 218 217 243 241 241 221 232 237 220 227 227
267 262 257 252 246 239 236 231 221 215 211 198 178 197 193 203 205 207 217 225 237 226 217 216 233 238 242 240 239 270 312 274 258 242 251 227 229 233 247 254 242 266 239 230 229 238 246
268 263 258 253 247 243 237 232 225 215 212 205 199 202 193 206 194 201 214 224 229 228 221 224 225 229 240 239 241 132 81 327 321 310 219 224 215 226 239 237 250 260 249 246 240 238 252
267 262 257 251 245 240 234 228 225 223 210 211 197 195 206 201 197 203 214 219 228 228 233 232 226 231 229 212 114 111 144 330 292 289 312 224 221 224 223 240 234 255 251 254 261 269 273
271 263 256 250 244 238 231 225 219 218 216 215 207 194 190 205 203 205 217 220 224 235 236 232 227 232 231 165 213 184 108 70 282 279 276 333 353 346 219 229 252 248 243 250 251 256 249
266 264 258 252 244 236 228 223 216 213 211 217 220 202 187 195 204 210 207 215 220 222 231 234 240 238 216 237 126 231 159 203 164 261 192 269 274 245 253 218 234 221 250 236 246 257 269
272 269 263 252 247 231 222 217 214 209 206 209 211 206 191 190 218 211 210 215 211 215 227 230 225 237 220 224 238 219 231 223 204 180 156 197 256 259 259 242 270 205 222 246 250 241 247
286 269 259 245 230 213 210 211 208 202 202 200 206 197 181 175 197 210 213 222 217 215 216 211 206 211 198 188 229 219 218 228 244 209 165 162 180 226 217 244 246 285 302 232 249 233 259
292 284 257 248 218 205 200 199 200 196 196 197 199 190 183 183 180 177 212 233 217 235 232 210 204 195 191 184 230 229 274 194 206 217 193 175 178 195 242 260 316 300 257 280 286 292 274
Height
1525 1524 1523 1524 1522 1521 1520 1520 1518 1517 1517 1516 1516 1516 1515 1515 1515 1514 1512 1511 1510 1509 1507 1506 1504 1503 1500 1499 1492 1487 1488 1488 1488 1488 1490 1491 1490 1488 1481 1472 1471 1471 1468 1466 1466 1467 1467
1520 1520 1520 1519 1518 1517 1517 1517 1515 1514 1513 1513 1512 1513 1513 1512 1512 1511 1509 1508 1507 1506 1504 1504 1503 1501 1500 1497 1489 1486 1485 1486 1486 1487 1489 1488 1487 1484 1480 1476 1472 1469 1469 1466 1463 1463 1465
1517 1516 1516 1514 1513 1513 1512 1513 1512 1511 1510 1510 1509 1509 1508 1509 1508 1508 1506 1505 1503 1502 1501 1501 1500 1499 1496 1482 1485 1486 1484 1484 1485 1487 1487 1487 1486 1486 1481 1475 1472 1470 1469 1462 1460 1459 1462
1513 1512 1511 1511 1510 1509 1508 1508 1507 1507 1508 1507 1506 1506 1505 1504 1504 1504 1503 1502 1500 1499 1497 1497 1497 1497 1487 1480 1480 1479 1483 1483 1484 1485 1485 1485 1485 1486 1484 1479 1472 1469 1464 1465 1457 1459 1466
1507 1507 1507 1508 1507 1505 1504 1503 1503 1503 1503 1503 1504 1503 1501 1500 1500 1501 1499 1499 1498 1496 1494 1493 1494 1494 1481 1474 1472 1473 1478 1480 1482 1483 1483 1485 1485 1483 1481 1476 1474 1465 1467 1456 1454 1456 1461
1501 1501 1501 1502 1501 1500 1500 1500 1500 1499 1499 1499 1500 1500 1498 1497 1497 1497 1496 1496 1495 1491 1490 1489 1491 1496 1476 1471 1468 1469 1473 1477 1478 1481 1482 1483 1483 1480 1474 1473 1479 1467 1465 1456 1458 1457 1453
1495 1495 1494 1494 1495 1495 1495 1495 1495 1495 1495 1496 1496 1496 1496 1496 1495 1493 1495 1494 1495 1492 1487 1483 1479 1476 1471 1469 1468 1468 1470 1475 1476 1477 1476 1476 1479 1477 1467 1460 1456 1454 1456 1456 1451 1452 1455
1489 1488 1487 1487 1488 1489 1489 1490 1490 1491 1491 1492 1492 1491 1494 1494 1492 1492 1493 1494 1494 1495 1483 1478 1473 1471 1469 1469 1468 1465 1468 1471 1472 1470 1470 1472 1470 1463 1459 1454 1452 1451 1455 1451 1441 1443 1448
1481 1480 1480 1480 1481 1481 1483 1484 1485 1485 1486 1488 1488 1488 1490 1491 1491 1490 1491 1490 1492 1493 1484 1464 1461 1458 1459 1465 1462 1461 1463 1464 1465 1467 1462 1466 1457 1453 1453 1453 1454 1455 1456 1450 1454 1451 1444
1473 1472 1471 1471 1472 1474 1475 1477 1478 1479 1481 1483 1485 1485 1488 1489 1492 1488 1489 1491 1492 1494 1480 1455 1444 1440 1447 1455 1452 1455 1455 1461 1461 1459 1458 1455 1451 1449 1452 1454 1452 1459 1446 1447 1454 1454 1460
1463 1462 1463 1463 1464 1466 1468 1469 1471 1473 1476 1478 1480 1482 1484 1487 1486 1488 1489 1486 1491 1493 1486 1430 1422 1430 1438 1441 1440 1444 1448 1453 1454 1450 1452 1452 1449 1449 1452 1450 1446 1451 1449 1452 1449 1451 1449
1454 1454 1454 1454 1456 1458 1459 1461 1463 1466 1470 1473 1476 1478 1482 1483 1484 1484 1487 1488 1490 1490 1465 1429 1426 1430 1435 1436 1439 1437 1442 1447 1451 1449 1444 1443 1441 1442 1443 1444 1443 1441 1450 1452 1449 1450 1465
1444 1445 1445 1446 1447 1449 1450 1452 1455 1458 1462 1466 1469 1473 1477 1481 1482 1485 1486 1490 1488 1468 1432 1427 1422 1426 1431 1431 1435 1436 1436 1439 1443 1453 1448 1442 1440 1436 1439 1444 1440 1443 1451 1467 1471 1468 1468
1435 1435 1435 1436 1437 1440 1442 1445 1448 1452 1456 1460 1464 1469 1472 1476 1480 1483 1485 1487 1467 1426 1433 1411 1409 1416 1426 1426 1429 1431 1430 1434 1435 1437 1445 1446 1451 1435 1436 1438 1441 1446 1449 1465 1495 1503 1471
1423 1423 1423 1424 1426 1429 1433 1436 1440 1445 1449 1454 1460 1462 1466 1470 1476 1479 1484 1475 1437 1434 1421 1428 1417 1419 1419 1421 1422 1428 1423 1425 1427 1432 1440 1441 1438 1427 1431 1435 1437 1441 1449 1442 1479 1491 1495
1410 1410 1411 1412 1415 1418 1422 1426 1432 1437 1443 1449 1452 1457 1458 1466 1472 1477 1478 1465 1437 1433 1428 1423 1425 1420 1418 1415 1420 1421 1423 1415 1422 1424 1427 1429 1441 1425 1427 1431 1433 1435 1435 1451 1448 1476 1479
1397 1397 1398 1400 1403 1407 1411 1416 1422 1429 1435 1443 1447 1450 1449 1461 1468 1471 1461 1447 1431 1437 1435 1429 1427 1424 1415 1409 1409 1414 1415 1414 1415 1418 1423 1424 1431 1436 1423 1424 1433 1436 1439 1439 1441 1441 1460
1382 1383 1384 1386 1389 1394 1399 1405 1411 1419 1428 1434 1438 1439 1442 1452 1459 1453 1441 1420 1427 1426 1432 1425 1427 1423 1415 1408 1409 1416 1409 1405 1407 1410 1413 1418 1425 1438 1435 1421 1425 1428 1429 1433 1447 1448 1446
1367 1367 1369 1372 1375 1379 1385 1391 1398 1406 1414 1422 1425 1432 1438 1439 1439 1434 1435 1422 1423 1424 1423 1424 1419 1419 1415 1413 1415 1407 1403 1403 1401 1402 1405 1411 1422 1443 1433 1426 1419 1425 1422 1422 1426 1429 1441
1351 1351 1353 1356 1358 1364 1371 1377 1384 1392 1401 1411 1416 1419 1425 1428 1424 1424 1422 1405 1413 1424 1425 1426 1418 1416 1417 1417 1420 1417 1404 1402 1399 1399 1402 1404 1412 1421 1435 1424 1419 1425 1418 1418 1426 1440 1442
1335 1336 1338 1341 1346 1351 1356 1363 1369 1376 1386 1396 1396 1394 1391 1400 1404 1399 1417 1404 1410 1411 1418 1422 1418 1411 1412 1417 1414 1420 1419 1408 1405 1402 1402 1405 1414 1416 1413 1410 1410 1413 1415 1415 1420 1424 1428
1321 1322 1324 1328 1332 1338 1343 1347 1352 1361 1371 1375 1377 1382 1385 1383 1402 1406 1405 1401 1399 1395 1406 1410 1412 1407 1406 1407 1409 1417 1422 1415 1417 1406 1404 1403 1411 1413 1415 1410 1408 1412 1404 1406 1407 1410 1409
1307 1309 1311 1314 1318 1323 1331 1336 1341 1347 1357 1354 1363 1374 1378 1379 1388 1399 1391 1382 1382 1398 1397 1403 1406 1408 1407 1404 1408 1416 1430 1431 1427 1426 1404 1406 1407 1415 1419 1411 1414 1420 1407 1401 1401 1400 1402
1291 1292 1294 1297 1302 1308 1315 1323 1329 1335 1340 1346 1349 1364 1373 1368 1376 1376 1380 1384 1385 1392 1394 1395 1402 1403 1399 1406 1410 1416 1420 1427 1430 1422 1407 1400 1405 1408 1420 1425 1429 1400 1396 1395 1397 1398 1396
1274 1274 1276 1279 1284 1291 1299 1308 1316 1324 1333 1340 1342 1354 1360 1365 1364 1372 1377 1381 1389 1390 1392 1393 1392 1391 1401 1406 1408 1415 1427 1433 1429 1418 1408 1411 1414 1419 1419 1419 1408 1396 1396 1397 1398 1401 1394
1257 1257 1258 1261 1266 1273 1282 1291 1302 1313 1325 1336 1340 1349 1352 1362 1358 1363 1370 1375 1381 1384 1388 1385 1387 1392 1395 1397 1419 1415 1420 1418 1419 1413 1407 1417 1419 1430 1417 1417 1418 1398 1394 1390 1392 1402 1388
1243 1241 1240 1241 1244 1252 1264 1276 1289 1302 1316 1327 1331 1346 1347 1353 1357 1360 1362 1368 1372 1378 1378 1382 1383 1388 1389 1392 1401 1413 1402 1393 1399 1405 1420 1423 1422 1427 1418 1416 1401 1388 1388 1389 1405 1403 1385
1230 1226 1224 1224 1226 1235 1249 1264 1278 1292 1306 1318 1326 1336 1341 1349 1352 1356 1360 1367 1368 1369 1372 1373 1384 1386 1391 1399 1398 1396 1396 1390 1390 1384 1400 1416 1427 1423 1415 1414 1413 1380 1383 1389 1385 1380 1382
1222 1217 1213 1212 1217 1228 1241 1257 1271 1285 1300 1314 1326 1331 1341 1349 1354 1355 1360 1362 1365 1367 1371 1370 1369 1376 1381 1391 1402 1391 1387 1383 1383 1390 1381 1403 1404 1413 1411 1396 1390 1393 1383 1381 1378 1379 1382